[[{"header":{"parameterUnit":"m.s-1","parameterCategory":1,"la1":30.2991,"la2":30.254,"lo1":-89.0895,"lo2":-89.0444,"dy":0.0017,"dx":0.0017,"nx":28,"ny":28,"refTime":"2025-03-28T03:00:00:Z","depth":0,"parameterNumber":2,"parameterNumberName":"U-component_of_WINDS"},"data":[0,0,0,0,0,0,0,0,0,0,0,0,0,0,0,0,0,0,0,0,0,0,0,0,0,0,0,0,0,0,0,0,0,0,0,0,0,0,0,0,0,0,0,0,0,0,0,0,0,0,0,0,0,0,0,0,0,0,-7.5081,-7.5082,0,-7.5151,-7.5152,-7.5153,-7.5095,-7.5093,-7.509,-7.5088,-7.5157,-7.516,-7.5165,0,0,0,0,0,0,0,0,0,0,0,0,0,-7.4895,-7.4899,-7.5081,-7.5082,-7.5083,-7.5151,-7.5152,-7.5153,-7.5096,-7.5093,-7.509,-7.5087,-7.5155,-7.516,-7.5165,0,0,0,0,0,0,0,0,0,0,0,0,0,-7.4971,-7.49,-7.5081,-7.5062,-7.5061,-7.5151,-7.5152,-7.5153,-7.5096,-7.5093,-7.5089,-7.5086,-7.5154,-7.516,-7.5166,-7.5276,0,0,-7.5184,-7.5187,0,0,0,0,0,0,0,0,-7.4967,-7.4978,-7.5064,-7.5064,-7.5063,-7.5111,-7.5111,-7.5194,-7.5097,-7.5083,-7.5088,-7.5084,-7.5144,-7.5151,-7.5172,-7.5279,-7.5282,-7.5185,-7.5188,-7.5191,-7.5193,0,0,0,0,0,0,0,-7.4962,-7.4975,-7.5108,-7.5065,-7.5065,-7.505,-7.5057,-7.5127,-7.5133,-7.5084,-7.508,-7.5089,-7.5143,-7.5166,-7.5173,-7.5283,-7.5185,-7.519,-7.5194,-7.5196,-7.5484,-7.5488,0,0,0,0,0,0,-7.4959,-7.4971,-7.5106,-7.5111,-7.5005,-7.5056,-7.5064,-7.5099,-7.5132,-7.5133,-7.5092,-7.5086,-7.5157,-7.5166,-7.5175,-7.5305,-7.5191,-7.5197,-7.52,-7.548,-7.5485,-7.5489,0,0,0,0,0,0,-7.4955,-7.4972,-7.5103,-7.504,-7.5055,-7.5063,-7.5103,-7.5102,-7.5125,-7.5138,-7.5139,-7.5115,-7.5155,-7.5166,-7.5251,-7.5306,-7.5199,-7.5205,-7.5475,-7.5481,-7.5487,-7.5566,0,0,0,0,0,0,-7.495,-7.497,-7.5012,-7.5041,-7.5059,-7.5179,-7.5107,-7.5106,-7.5136,-7.5129,-7.5159,-7.5161,-7.5153,-7.5243,-7.5257,-7.5313,-7.521,-7.547,-7.5478,-7.5485,-7.5558,-7.5574,-7.5587,0,0,0,0,0,-7.4944,-7.5031,-7.5015,-7.5031,-7.5112,-7.5182,-7.5192,-7.5182,-7.5141,-7.5183,-7.5192,-7.516,-7.5299,-7.5252,-7.5268,-7.5326,-7.5466,-7.5476,-7.5484,-7.5552,-7.5571,-7.5587,0,0,0,0,0,0,-7.5006,-7.5034,-7.5016,-7.5116,-7.5148,-7.5172,-7.5224,-7.5203,-7.5245,-7.5236,-7.5222,-7.5229,-7.5318,-7.5331,-7.5278,-7.5435,-7.5376,-7.5389,-7.5422,-7.544,-7.5454,-7.5447,-7.5215,0,0,0,0,0,-7.5032,-7.5088,-7.5109,-7.5195,-7.5212,-7.5216,-7.5246,-7.5237,-7.5268,-7.528,-7.5295,-7.5326,-7.5376,-7.5409,-7.5457,-7.5562,-7.5567,-7.561,-7.5625,-7.5636,-7.5646,-7.5702,-7.5721,-7.5518,-7.5518,-7.5518,0,0,-7.5085,-7.5107,-7.5143,-7.5208,-7.5231,-7.5288,-7.5227,-7.529,-7.5332,-7.5289,-7.5369,-7.5383,-7.5416,-7.5511,-7.5554,-7.5525,-7.5704,-7.5648,-7.5657,-7.566,-7.5713,-7.5732,-7.5749,-7.5525,-7.5523,-7.5522,0,0,-7.5209,-7.5233,-7.5307,-7.5332,-7.5369,-7.5372,-7.539,-7.5419,-7.5426,-7.5508,-7.5477,-7.5527,-7.5615,-7.564,-7.5664,-7.5803,-7.5774,-7.5819,-7.5892,-7.5947,-7.5963,-7.5977,-7.6024,-7.6041,-7.583,-7.583,-7.583,0,-7.5269,-7.5355,-7.5347,-7.5413,-7.5442,-7.5409,-7.5483,-7.5508,-7.5558,-7.5578,-7.5546,-7.5657,-7.5677,-7.5777,-7.5811,-7.5833,-7.5852,-7.5813,-7.5962,-7.5975,-7.5988,-7.6033,-7.6051,-7.5835,-7.5834,-7.5834,-7.5833,0,-7.5426,-7.5487,-7.5542,-7.5592,-7.5629,-7.5698,-7.57,-7.5738,-7.5727,-7.5733,-7.5816,-7.5841,-7.5892,-7.5917,-7.5905,-7.6016,-7.5996,-7.5964,-7.5904,-7.6013,-7.6054,-7.6071,-7.5842,-7.584,-7.5839,-7.5837,0,0,-7.5586,-7.5635,-7.5655,-7.5678,-7.5718,-7.5764,-7.5833,-7.5886,-7.5917,-7.5955,-7.601,-7.6088,-7.6058,-7.6086,-7.6078,-7.6126,-7.6233,-7.6087,-7.6088,-7.6111,-7.6354,-7.6375,-7.6395,-7.6217,-7.622,-7.6223,-7.635,0,-7.5711,-7.5831,-7.5827,-7.5938,-7.5993,-7.5966,-7.6026,-7.6057,-7.6066,-7.6113,-7.6123,-7.6177,-7.6135,-7.6152,-7.6199,-7.621,-7.628,-7.6201,-7.6266,-7.6268,-7.6254,-7.6417,-7.644,-7.6559,-7.6367,-7.6369,-7.6371,0,-7.587,-7.5914,-7.6031,-7.6065,-7.6088,-7.6141,-7.6189,-7.6237,-7.6271,-7.6275,-7.6308,-7.6293,-7.6362,-7.6305,-7.6399,-7.6345,-7.6373,-7.6383,-7.6387,-7.6389,-7.6323,-7.642,-7.6597,-7.6613,-7.6397,-7.6395,-7.6394,0,-7.5971,-7.6061,-7.6142,-7.6163,-7.6205,-7.6243,-7.6262,-7.6294,-7.6326,-7.6369,-7.639,-7.644,-7.6466,-7.6505,-7.6504,-7.6463,-7.66,-7.6542,-7.6602,-7.6602,-7.6628,-7.6625,-7.6807,-7.6653,-7.6652,-7.6652,-7.6652,0,-7.6108,-7.6179,-7.6188,-7.6238,-7.6318,-7.6315,-7.6394,-7.641,-7.6439,-7.649,-7.6471,-7.652,-7.6517,-7.6567,-7.6567,-7.6644,-7.6657,-7.666,-7.6659,-7.666,-7.6659,-7.6674,-7.6664,-7.6657,-7.6656,-7.6655,-7.6654,0,-7.6232,-7.6241,-7.6328,-7.6362,-7.6373,-7.643,-7.6458,-7.6505,-7.6515,-7.6581,-7.6596,-7.661,-7.6667,-7.6672,-7.6738,-7.6738,-7.6831,-7.6822,-7.6819,-7.6816,-7.6875,-7.6868,-7.7069,-7.7094,-7.6927,-7.6929,-7.693,0,-7.6316,-7.6371,-7.6412,-7.6446,-7.6468,-7.6523,-7.6556,-7.6557,-7.6592,-7.6638,-7.668,-7.6736,-7.678,-7.6874,-7.6889,-7.694,-7.693,-7.6997,-7.6937,-7.6936,-7.6927,-7.6922,-7.6926,-7.7007,-7.7009,-7.701,-7.7012,0,-7.6463,-7.6466,-7.6515,-7.6568,-7.6609,-7.665,-7.6688,-7.6717,-7.6722,-7.6763,-7.6822,-7.6857,-7.6926,-7.6982,-7.7032,-7.7051,-7.7032,-7.7032,-7.7047,-7.7046,-7.7041,-7.7042,-7.6847,-7.7025,-7.7024,-7.7023,-7.7022,-7.7022,-7.6567,-7.6615,-7.6652,-7.6708,-7.6738,-7.6775,-7.682,-7.6837,-7.6887,-7.6944,-7.6942,-7.7007,-7.7043,-7.7109,-7.7132,-7.7183,-7.716,-7.7184,-7.7189,-7.7194,-7.7198,-7.7037,-7.7193,-7.7192,-7.7192,-7.7191,-7.7191,0,-7.6711,-7.6734,-7.6787,-7.6841,-7.6886,-7.6868,-7.691,-7.6948,-7.7006,-7.7042,-7.7087,-7.7156,-7.7211,-7.7232,-7.7285,-7.7322,-7.7314,-7.7335,-7.733,-7.7335,-7.7217,-7.7196,-7.7341,-7.7341,-7.7341,-7.734,-7.734,-7.734,-7.679,-7.6869,-7.6877,-7.6972,-7.6994,-7.7059,-7.7084,-7.7118,-7.7147,-7.7225,-7.7271,-7.7286,-7.7316,-7.7372,-7.7421,-7.7426,-7.7445,-7.7469,-7.747,-7.7358,-7.7343,-7.7328,-7.7309,-7.7474,-7.7474,-7.7583,-7.7584,-7.7584]},{"header":{"parameterUnit":"m.s-1","parameterCategory":1,"la1":30.2991,"la2":30.254,"lo1":-89.0895,"lo2":-89.0444,"dy":0.0017,"dx":0.0017,"nx":28,"ny":28,"refTime":"2025-03-28T03:00:00:Z","depth":0,"parameterNumber":3,"parameterNumberName":"V-component_of_WINDS"},"data":[0,0,0,0,0,0,0,0,0,0,0,0,0,0,0,0,0,0,0,0,0,0,0,0,0,0,0,0,0,0,0,0,0,0,0,0,0,0,0,0,0,0,0,0,0,0,0,0,0,0,0,0,0,0,0,0,0,0,3.8745,3.8746,0,3.8884,3.8886,3.8887,3.8971,3.8972,3.8972,3.8972,3.9112,3.9115,3.9119,0,0,0,0,0,0,0,0,0,0,0,0,0,3.855,3.8553,3.8745,3.8747,3.8748,3.8884,3.8886,3.8888,3.8971,3.8972,3.8972,3.8973,3.9111,3.9115,3.9119,0,0,0,0,0,0,0,0,0,0,0,0,0,3.8656,3.8554,3.8745,3.8806,3.8813,3.8884,3.8886,3.8888,3.8971,3.8972,3.8972,3.8973,3.911,3.9114,3.9119,3.9138,0,0,3.9135,3.9137,0,0,0,0,0,0,0,0,3.865,3.8663,3.8796,3.8802,3.881,3.8911,3.8868,3.8972,3.8971,3.8911,3.8972,3.8973,3.9044,3.9055,3.908,3.9145,3.9151,3.9135,3.9138,3.914,3.9142,0,0,0,0,0,0,0,3.8643,3.8658,3.88,3.8797,3.8806,3.8827,3.8842,3.8888,3.8972,3.8916,3.8923,3.8938,3.9048,3.9074,3.9083,3.9153,3.9135,3.9139,3.9143,3.9145,3.9243,3.9243,0,0,0,0,0,0,3.8626,3.8651,3.8796,3.8804,3.873,3.883,3.8847,3.8878,3.8972,3.8987,3.8937,3.8942,3.9066,3.9077,3.9089,3.9119,3.914,3.9145,3.9148,3.9244,3.9243,3.9243,0,0,0,0,0,0,3.8621,3.8638,3.879,3.8729,3.875,3.8832,3.8866,3.888,3.8907,3.8988,3.9004,3.8949,3.9067,3.9082,3.9126,3.9125,3.9147,3.9152,3.9244,3.9243,3.9243,3.9179,0,0,0,0,0,0,3.8615,3.8636,3.8644,3.8729,3.8753,3.8825,3.8866,3.8883,3.8915,3.8922,3.9003,3.9017,3.9068,3.9118,3.9131,3.9132,3.9156,3.9244,3.9244,3.9243,3.9181,3.9176,3.9171,0,0,0,0,0,3.8608,3.8619,3.8644,3.8661,3.8765,3.8825,3.8839,3.8899,3.8915,3.8924,3.8977,3.9014,3.9123,3.9122,3.9137,3.914,3.9245,3.9244,3.9243,3.9183,3.9177,3.9171,0,0,0,0,0,0,3.853,3.8631,3.866,3.8699,3.8753,3.8839,3.8852,3.8889,3.8939,3.8943,3.9014,3.9032,3.9069,3.9109,3.9106,3.9164,3.9188,3.919,3.9137,3.9132,3.9127,3.9117,3.916,0,0,0,0,0,3.8518,3.8558,3.8644,3.867,3.8696,3.8769,3.8797,3.8839,3.8897,3.892,3.8976,3.9031,3.9078,3.9107,3.9154,3.9187,3.9207,3.9196,3.9191,3.9187,3.9188,3.9211,3.9208,3.924,3.924,3.924,0,0,3.8492,3.8552,3.8573,3.8656,3.8703,3.8744,3.8788,3.8828,3.8859,3.8926,3.8973,3.9015,3.9081,3.912,3.914,3.9155,3.9184,3.9186,3.9182,3.9186,3.921,3.9206,3.9204,3.9239,3.9239,3.9239,0,0,3.8467,3.8515,3.8544,3.859,3.8661,3.871,3.8717,3.8798,3.883,3.8877,3.8929,3.8966,3.9045,3.909,3.9124,3.9117,3.9154,3.913,3.9105,3.9126,3.9123,3.9122,3.9121,3.912,3.9131,3.9131,3.9131,0,3.8426,3.8489,3.8553,3.8592,3.8628,3.8691,3.8721,3.8762,3.8844,3.8867,3.8882,3.8984,3.9032,3.9084,3.9083,3.9107,3.9117,3.9122,3.9119,3.9117,3.9117,3.9117,3.9116,3.9128,3.9128,3.9128,3.9129,0,3.8437,3.848,3.8494,3.8574,3.8611,3.8644,3.8714,3.8743,3.8782,3.8829,3.8877,3.8938,3.9,3.9015,3.9052,3.9073,3.908,3.9105,3.9131,3.9109,3.9111,3.9111,3.9123,3.9124,3.9125,3.9126,0,0,3.8366,3.8482,3.8486,3.8524,3.8608,3.8642,3.8679,3.8741,3.8766,3.882,3.8853,3.8919,3.8944,3.8982,3.9024,3.9043,3.9036,3.9067,3.9069,3.906,3.9065,3.9046,3.9045,3.9061,3.9061,3.9061,3.906,0,3.8354,3.8425,3.8484,3.8533,3.8575,3.8636,3.8669,3.8723,3.8768,3.881,3.886,3.8906,3.8935,3.8958,3.8979,3.9032,3.9038,3.9033,3.9093,3.9094,3.9076,3.9046,3.9026,3.9022,3.9061,3.9061,3.9061,0,3.835,3.8404,3.8457,3.8539,3.8558,3.8586,3.8649,3.8688,3.8751,3.8783,3.8826,3.8871,3.8913,3.8933,3.8993,3.8988,3.9016,3.9046,3.9047,3.9056,3.9077,3.9056,3.9022,3.9022,3.9062,3.9062,3.9062,0,3.8296,3.8381,3.8425,3.8455,3.855,3.8569,3.8609,3.8674,3.8708,3.8762,3.8785,3.8842,3.8874,3.8917,3.8977,3.8986,3.9031,3.9055,3.9059,3.9057,3.9066,3.9065,3.9038,3.9081,3.9081,3.9081,3.9081,0,3.8278,3.8308,3.8403,3.8429,3.8466,3.8533,3.8567,3.8613,3.867,3.8707,3.8762,3.8796,3.8872,3.8914,3.8961,3.9004,3.9017,3.9044,3.9057,3.904,3.9037,3.9061,3.9063,3.9081,3.9081,3.9081,3.9081,0,3.8224,3.8288,3.834,3.8426,3.8449,3.8472,3.8546,3.8574,3.8623,3.8669,3.8684,3.876,3.8813,3.8877,3.895,3.8981,3.9021,3.9038,3.9,3.9007,3.9008,3.9007,3.8996,3.8999,3.9038,3.9037,3.9037,0,3.8209,3.8234,3.8324,3.8353,3.8392,3.8438,3.8474,3.8542,3.8576,3.8652,3.8671,3.8729,3.8779,3.8861,3.8922,3.8979,3.8999,3.8991,3.9008,3.8991,3.9001,3.9,3.9003,3.8987,3.8986,3.8986,3.8985,0,3.8176,3.8207,3.8257,3.8318,3.8359,3.841,3.8463,3.8484,3.8562,3.8599,3.8654,3.8693,3.8769,3.8826,3.889,3.8932,3.8972,3.8979,3.8984,3.8968,3.8946,3.896,3.899,3.898,3.898,3.898,3.8981,3.8981,3.8143,3.8169,3.8237,3.8291,3.8338,3.8387,3.8419,3.8472,3.852,3.8588,3.8625,3.868,3.8744,3.8836,3.8876,3.892,3.8934,3.8939,3.8941,3.8942,3.8938,3.8937,3.8931,3.8932,3.8932,3.8932,3.8932,0,3.8114,3.8162,3.821,3.8284,3.8327,3.8362,3.8423,3.8456,3.8504,3.8561,3.861,3.8675,3.873,3.8797,3.8857,3.8879,3.8899,3.8893,3.8893,3.8902,3.8921,3.8912,3.8876,3.8876,3.8876,3.8876,3.8876,3.8876,3.8105,3.8152,3.8191,3.8262,3.8309,3.8365,3.8397,3.8443,3.8489,3.8559,3.8606,3.865,3.8711,3.8776,3.8829,3.8847,3.8867,3.8856,3.8879,3.8896,3.8901,3.8905,3.8898,3.8859,3.8859,3.8858,3.8858,3.8858]}]]